• In Hungary
  • List of Countries
  • For 7 days
  • Water Temperature
  • Satellite Maps
  • Weather Map
  • News
  • Weather Widgets
  • user-avatar
    Login

    Hourly Weather Ashdod

    Today, 23 August, Wednesday

    Time Temperature Precipitation Wind Pressure Humidity
    00:00 +29°C° 0 mm 2 mps 756 mmHg 70%
    01:00 +28°C° 0 mm 2 mps 756 mmHg 71%
    02:00 +28°C° 0 mm 2 mps 756 mmHg 73%
    03:00 +28°C° 0 mm 1 mps 756 mmHg 74%
    04:00 +27°C° 0 mm 1 mps 756 mmHg 75%
    05:00 +27°C° 0 mm 1 mps 756 mmHg 77%
    06:00 +28°C° 0 mm 1 mps 756 mmHg 70%
    07:00 +29°C° 0 mm 1 mps 756 mmHg 64%
    08:00 +30°C° 0 mm 1 mps 756 mmHg 58%
    09:00 +31°C° 0 mm 2 mps 756 mmHg 52%
    10:00 +32°C° 0 mm 2 mps 756 mmHg 47%
    11:00 +35°C° 0 mm 3 mps 756 mmHg 42%
    12:00 +35°C° 0 mm 4 mps 756 mmHg 42%
    13:00 +35°C° 0 mm 4 mps 756 mmHg 42%
    14:00 +36°C° 0 mm 5 mps 756 mmHg 43%
    15:00 +35°C° 0 mm 5 mps 755 mmHg 46%
    16:00 +34°C° 0 mm 5 mps 755 mmHg 50%
    17:00 +34°C° 0 mm 5 mps 755 mmHg 53%
    18:00 +33°C° 0 mm 5 mps 755 mmHg 58%
    19:00 +32°C° 0 mm 4 mps 755 mmHg 63%
    20:00 +30°C° 0 mm 3 mps 756 mmHg 68%
    21:00 +30°C° 0 mm 3 mps 756 mmHg 70%
    22:00 +29°C° 0 mm 3 mps 756 mmHg 71%
    23:00 +29°C° 0 mm 2 mps 756 mmHg 73%

    Tomorrow, 24 August, Thursday

    Time Temperature Precipitation Wind Pressure Humidity
    00:00 +29°C° 0 mm 2 mps 756 mmHg 74%
    01:00 +28°C° 0 mm 2 mps 755 mmHg 76%
    02:00 +28°C° 0 mm 1 mps 755 mmHg 78%
    03:00 +28°C° 0 mm 1 mps 755 mmHg 79%
    04:00 +27°C° 0 mm 1 mps 755 mmHg 81%
    05:00 +25°C° 0 mm 0 mps 755 mmHg 82%
    06:00 +28°C° 0 mm 1 mps 756 mmHg 75%
    07:00 +29°C° 0 mm 1 mps 756 mmHg 69%
    08:00 +30°C° 0 mm 1 mps 756 mmHg 62%
    09:00 +32°C° 0 mm 2 mps 756 mmHg 56%
    10:00 +34°C° 0 mm 2 mps 756 mmHg 49%
    11:00 +35°C° 0 mm 3 mps 756 mmHg 43%
    12:00 +36°C° 0 mm 4 mps 755 mmHg 44%
    13:00 +36°C° 0 mm 5 mps 755 mmHg 45%
    14:00 +36°C° 0 mm 5 mps 754 mmHg 45%
    15:00 +36°C° 0 mm 5 mps 754 mmHg 49%
    16:00 +35°C° 0 mm 6 mps 754 mmHg 52%
    17:00 +34°C° 0 mm 6 mps 754 mmHg 56%
    18:00 +33°C° 0 mm 5 mps 754 mmHg 61%
    19:00 +32°C° 0 mm 5 mps 755 mmHg 65%
    20:00 +32°C° 0 mm 4 mps 755 mmHg 70%
    21:00 +30°C° 0 mm 4 mps 755 mmHg 71%
    22:00 +30°C° 0 mm 3 mps 755 mmHg 72%
    23:00 +30°C° 0 mm 3 mps 755 mmHg 74%

    Day after tomorrow, 25 August, Friday

    Time Temperature Precipitation Wind Pressure Humidity
    00:00 +29°C° 0 mm 3 mps 755 mmHg 75%
    01:00 +29°C° 0 mm 2 mps 755 mmHg 76%
    02:00 +29°C° 0 mm 2 mps 755 mmHg 77%
    03:00 +28°C° 0 mm 2 mps 755 mmHg 77%
    04:00 +28°C° 0 mm 2 mps 755 mmHg 77%
    05:00 +28°C° 0 mm 2 mps 755 mmHg 78%
    06:00 +29°C° 0 mm 2 mps 755 mmHg 70%
    07:00 +30°C° 0 mm 2 mps 755 mmHg 63%
    08:00 +31°C° 0 mm 2 mps 755 mmHg 55%
    09:00 +34°C° 0 mm 3 mps 755 mmHg 50%
    10:00 +35°C° 0 mm 3 mps 755 mmHg 45%
    11:00 +37°C° 0 mm 4 mps 755 mmHg 40%
    12:00 +37°C° 0 mm 4 mps 755 mmHg 40%
    13:00 +37°C° 0 mm 5 mps 754 mmHg 41%
    14:00 +39°C° 0 mm 5 mps 754 mmHg 41%
    15:00 +37°C° 0 mm 5 mps 753 mmHg 45%
    16:00 +36°C° 0 mm 5 mps 753 mmHg 49%
    17:00 +35°C° 0 mm 5 mps 753 mmHg 53%
    18:00 +34°C° 0 mm 5 mps 754 mmHg 57%
    19:00 +33°C° 0 mm 4 mps 754 mmHg 62%
    20:00 +31°C° 0 mm 3 mps 754 mmHg 66%
    21:00 +31°C° 0 mm 3 mps 754 mmHg 68%
    22:00 +31°C° 0 mm 3 mps 754 mmHg 69%
    23:00 +30°C° 0 mm 2 mps 754 mmHg 71%

    26 August, Saturday

    Time Temperature Precipitation Wind Pressure Humidity
    00:00 +30°C° 0 mm 2 mps 754 mmHg 72%
    01:00 +30°C° 0 mm 2 mps 754 mmHg 73%
    02:00 +29°C° 0 mm 2 mps 754 mmHg 75%
    03:00 +29°C° 0 mm 2 mps 754 mmHg 76%
    04:00 +29°C° 0 mm 1 mps 754 mmHg 77%
    05:00 +28°C° 0 mm 1 mps 754 mmHg 79%
    06:00 +29°C° 0 mm 1 mps 754 mmHg 72%
    07:00 +31°C° 0 mm 1 mps 754 mmHg 66%
    08:00 +32°C° 0 mm 1 mps 755 mmHg 60%
    09:00 +34°C° 0 mm 2 mps 755 mmHg 53%
    10:00 +36°C° 0 mm 3 mps 754 mmHg 47%
    11:00 +37°C° 0 mm 3 mps 754 mmHg 40%
    12:00 +38°C° 0 mm 4 mps 754 mmHg 40%
    13:00 +38°C° 0 mm 4 mps 754 mmHg 40%
    14:00 +39°C° 0 mm 5 mps 753 mmHg 40%
    15:00 +37°C° 0 mm 5 mps 753 mmHg 42%
    16:00 +37°C° 0 mm 4 mps 753 mmHg 44%
    17:00 +36°C° 0 mm 4 mps 753 mmHg 47%
    18:00 +35°C° 0 mm 4 mps 753 mmHg 52%
    19:00 +34°C° 0 mm 3 mps 754 mmHg 57%
    20:00 +32°C° 0 mm 2 mps 754 mmHg 63%
    21:00 +31°C° 0 mm 2 mps 754 mmHg 65%
    22:00 +31°C° 0 mm 2 mps 754 mmHg 68%
    23:00 +30°C° 0 mm 2 mps 754 mmHg 70%

    27 August, Sunday

    Time Temperature Precipitation Wind Pressure Humidity
    00:00 +30°C° 0 mm 1 mps 754 mmHg 72%
    01:00 +30°C° 0 mm 1 mps 754 mmHg 73%
    02:00 +29°C° 0 mm 1 mps 753 mmHg 75%
    03:00 +29°C° 0 mm 1 mps 753 mmHg 75%
    04:00 +29°C° 0 mm 1 mps 754 mmHg 76%
    05:00 +28°C° 0 mm 1 mps 754 mmHg 77%
    06:00 +29°C° 0 mm 1 mps 754 mmHg 70%
    07:00 +31°C° 0 mm 1 mps 754 mmHg 64%
    08:00 +32°C° 0 mm 2 mps 754 mmHg 58%
    09:00 +34°C° 0 mm 2 mps 754 mmHg 52%
    10:00 +36°C° 0 mm 3 mps 754 mmHg 46%
    11:00 +37°C° 0 mm 3 mps 754 mmHg 40%
    12:00 +37°C° 0 mm 4 mps 753 mmHg 39%
    13:00 +38°C° 0 mm 4 mps 753 mmHg 38%
    14:00 +39°C° 0 mm 5 mps 753 mmHg 37%
    15:00 +37°C° 0 mm 5 mps 753 mmHg 40%
    16:00 +36°C° 0 mm 5 mps 753 mmHg 42%
    17:00 +36°C° 0 mm 4 mps 752 mmHg 45%
    18:00 +35°C° 0 mm 4 mps 753 mmHg 50%
    19:00 +34°C° 0 mm 3 mps 753 mmHg 55%
    20:00 +33°C° 0 mm 3 mps 753 mmHg 61%
    21:00 +31°C° 0 mm 2 mps 753 mmHg 63%
    22:00 +31°C° 0 mm 2 mps 753 mmHg 65%
    23:00 +30°C° 0 mm 2 mps 753 mmHg 67%

    28 August, Monday

    Time Temperature Precipitation Wind Pressure Humidity
    00:00 +30°C° 0 mm 1 mps 753 mmHg 68%
    01:00 +30°C° 0 mm 1 mps 753 mmHg 70%
    02:00 +29°C° 0 mm 1 mps 753 mmHg 72%
    03:00 +29°C° 0 mm 1 mps 753 mmHg 73%
    04:00 +28°C° 0 mm 1 mps 753 mmHg 74%
    05:00 +28°C° 0 mm 1 mps 753 mmHg 76%
    06:00 +29°C° 0 mm 1 mps 753 mmHg 70%
    07:00 +30°C° 0 mm 1 mps 754 mmHg 63%
    08:00 +31°C° 0 mm 1 mps 754 mmHg 57%
    09:00 +34°C° 0 mm 2 mps 754 mmHg 51%
    10:00 +35°C° 0 mm 3 mps 753 mmHg 46%
    11:00 +37°C° 0 mm 3 mps 753 mmHg 40%
    12:00 +37°C° 0 mm 4 mps 753 mmHg 40%
    13:00 +37°C° 0 mm 4 mps 752 mmHg 41%
    14:00 +37°C° 0 mm 5 mps 752 mmHg 42%
    15:00 +36°C° 0 mm 5 mps 752 mmHg 45%
    16:00 +35°C° 0 mm 5 mps 752 mmHg 49%
    17:00 +35°C° 0 mm 5 mps 752 mmHg 53%
    18:00 +34°C° 0 mm 4 mps 752 mmHg 58%
    19:00 +33°C° 0 mm 4 mps 753 mmHg 64%
    20:00 +31°C° 0 mm 3 mps 753 mmHg 69%
    21:00 +30°C° 0 mm 3 mps 753 mmHg 70%
    22:00 +30°C° 0 mm 2 mps 753 mmHg 71%
    23:00 +30°C° 0 mm 2 mps 753 mmHg 73%
    Show more